星链-31433 (STARLINK-31433 )

导读 | 星芒AI

STARLINK-31433 是 SpaceX 星链计划中的一颗低轨通信卫星,属于星链第三代(v1.5)卫星系列。该卫星于2023年发射,旨在为全球用户提供高速互联网服务。它运行在约550公里高的近地轨道,具备先进通信设备和激光链路,支持卫星间直接通信。星链项目通过部署大量此类卫星,构建覆盖全球的宽带网络,尤其服务于偏远地区。STARLINK-31433 的运行有助于提升网络稳定性和数据传输效率。

基本信息
目录编号:
59243
目录名称:
STARLINK-31433
国际标识:
2024-049N
轨道中心:
EARTH
卫星名称:
星链-31433
卫星全名:
星链-31433 (STARLINK-31433 )
卫星状态:
在轨 (已飞行643 天)
发射日期:
2024-03-16 UTC
国别 :
美国 (US)
星等 :
--
轨道信息
数据来源 国际轨道数据
星历时间: 2025-12-18T17:24:30+0800
1天前
查看轨道信息
半长轴: 6861.186km
偏心率: 0.0001163
轨道倾角: 43.000°
近地点辐角 270.354°
升交点赤经 242.575°
平近点角 89.718°
近地点: 482.253km
远地点: 483.849km
周期: 94.267分钟
每日圈数: 15.275802
详细信息
固有亮度:
5
最大亮度:
0.3
卫星平台:
Starlink v2.0 mini
覆盖范围:
全球
运营商:
太空探索技术公司
运营商所在国:
美国
制造商(研发单位):
太空探索技术公司
制造商所在国:
美国
使用方式:
暂无
卫星简介
星链(Starlink)计划是由太空探索技术公司(SpaceX)提出的一个巨型低轨卫星互联网星座项目,计划在2019年至2024年间在太空搭建由约1.2万颗卫星组成的“星链”网络,其中1584颗将部署在地球上空550千米处的近地轨道,并从2020年开始工作。该卫星仍在工作。
2D轨道图
3D轨道图
轨道高度分析图
轨道倾角分析图
轨道综合分析图
查看轨道综合分析图